EHI
0 0 0 0 0 0 0 0 0 0 0 0 0 1 3 6 11 14 15 17 19 16 13 15 19 18 14 11 9 8 6 4 1 0 0 0 0 0 0 0 0 0 0 0 0 0 0 0 0
0 0 0 0 0 0 0 0 0 0 0 0 0 1 3 7 13 16 17 18 18 16 14 16 20 20 15 11 9 8 6 3 1 0 0 0 0 0 0 0 0 0 0 0 0 0 0 0 0
0 0 0 0 0 0 0 0 0 0 0 0 1 2 3 7 12 16 18 18 16 14 15 19 22 20 15 12 10 8 6 3 1 0 0 0 0 0 0 0 1 1 0 0 0 0 0 0 0
0 0 0 0 0 0 0 0 0 0 0 1 2 3 3 7 11 14 16 17 15 13 14 19 22 20 15 12 10 8 6 4 2 1 0 0 0 0 0 1 2 2 1 0 0 0 0 0 0
0 0 0 0 0 0 0 0 0 0 0 1 2 3 3 6 11 14 16 17 16 14 13 17 22 21 17 13 10 7 6 5 3 1 0 0 0 0 0 1 2 2 1 0 0 0 0 0 0
0 0 0 0 0 0 0 0 0 0 0 1 2 2 2 4 9 13 15 16 18 16 14 15 19 20 18 14 10 7 6 6 4 1 0 0 0 0 0 0 1 1 0 0 0 0 0 0 0
0 0 0 0 0 0 0 0 0 0 0 0 1 1 1 3 7 11 13 14 16 16 14 13 12 13 13 10 7 6 6 6 5 3 2 1 1 0 0 0 1 1 1 0 0 0 0 0 0
0 0 0 0 0 0 0 0 0 0 0 0 0 0 3 6 8 10 11 12 13 13 11 8 6 6 6 5 5 5 6 6 6 5 4 3 2 0 0 0 1 1 1 0 0 0 0 0 0
0 0 0 0 0 0 0 0 0 0 0 0 0 2 6 10 11 10 11 11 10 9 8 6 4 3 3 3 4 5 6 6 6 6 4 3 1 0 0 0 0 0 0 0 0 0 0 0 0
0 0 0 0 0 0 0 0 0 0 0 0 0 2 5 8 9 9 9 9 9 8 8 7 6 4 4 3 3 4 5 6 6 5 3 1 0 0 0 0 0 0 0 0 0 0 0 0 0
0 0 0 0 0 0 0 0 0 0 0 0 0 1 2 3 5 6 7 7 7 7 8 8 8 7 5 4 4 4 4 4 5 4 3 2 1 0 0 0 0 0 0 0 0 0 0 0 0
0 0 0 0 0 0 0 0 0 0 0 0 0 0 0 1 2 4 5 6 6 6 6 7 9 9 7 6 6 5 4 3 2 1 1 1 1 0 0 0 0 0 0 0 0 0 0 0 0
0 0 0 0 0 0 0 0 0 0 0 0 0 0 0 1 2 3 4 4 4 4 4 6 8 8 7 6 6 6 5 3 1 0 0 0 0 0 0 0 0 0 0 0 0 0 0 0 0
0 0 0 0 0 0 0 0 0 0 0 0 0 0 0 1 2 2 3 3 3 3 3 4 5 6 6 6 5 4 3 2 1 0 0 0 0 0 0 0 0 0 0 0 0 0 0 0 0
0 0 0 0 0 0 0 0 0 0 0 0 0 0 0 0 1 1 2 3 3 3 3 3 4 5 6 5 3 2 1 1 0 0 0 0 0 0 0 0 0 0 0 0 0 0 0 0 0
0 0 0 0 0 0 0 0 0 0 0 0 0 0 0 0 0 0 1 1 2 3 3 3 3 4 5 4 2 1 0 0 0 0 0 0 0 0 0 0 0 0 0 0 0 0 0 0 0
0 0 0 0 0 0 0 0 0 0 0 0 0 0 0 0 0 0 0 0 1 2 3 3 3 3 4 3 1 0 0 0 0 0 0 0 0 0 0 0 0 0 0 0 0 0 0 0 0
0 0 0 0 0 0 0 0 0 0 0 0 0 0 0 0 0 0 0 0 0 1 1 2 3 3 2 1 0 0 0 0 0 0 0 0 0 0 0 0 0 0 0 0 0 0 0 0 0
0 0 0 0 0 0 0 0 0 0 0 0 0 0 0 0 0 0 0 0 0 0 0 1 1 2 1 0 0 0 0 0 0 0 0 0 0 0 0 0 0 0 0 0 0 0 0 0 0
0 0 0 0 0 0 0 0 0 0 0 0 0 0 0 0 0 0 0 0 0 0 0 0 0 0 0 0 0 0 0 0 0 0 0 0 0 0 0 0 0 0 0 0 0 0 0 0 0
0 0 0 0 0 0 0 0 0 0 0 0 0 0 0 0 0 0 0 0 0 0 0 0 0 0 0 0 0 0 0 0 0 0 0 0 0 0 0 0 0 0 0 0 0 0 0 0 0
0 0 0 0 0 0 0 0 0 0 0 0 0 0 0 0 0 0 0 0 0 0 0 0 0 0 0 0 0 0 0 0 0 0 0 0 0 0 0 0 0 0 0 0 0 0 0 0 0
0 0 0 0 0 0 0 0 0 0 0 0 0 0 0 0 0 0 0 0 0 0 0 0 0 0 0 0 0 0 0 0 0 0 0 0 0 0 0 0 0 0 0 0 0 0 0 0 0
0 0 0 0 0 0 0 0 0 0 0 0 0 0 0 0 0 0 0 0 0 0 0 0 0 0 0 0 0 0 0 0 0 0 0 0 0 0 0 0 0 0 0 0 0 0 0 0 0
0 0 0 0 0 0 0 0 0 0 0 0 0 0 0 0 0 0 0 0 0 0 0 0 0 0 0 0 0 0 0 0 0 0 0 0 0 0 0 0 0 0 0 0 0 0 0 0 0
0 0 0 0 0 0 0 0 0 0 0 0 0 0 0 0 0 0 0 0 0 0 0 0 0 0 0 0 0 0 0 0 0 0 0 0 0 0 0 0 0 0 0 0 0 0 0 0 0
0 0 0 0 0 0 0 0 0 0 0 0 0 0 0 0 0 0 0 0 0 0 0 0 0 0 0 0 0 0 0 0 0 0 0 0 0 0 0 0 0 0 0 0 0 0 0 0 0
0 0 0 0 0 0 0 0 0 0 0 0 0 0 0 0 0 0 0 0 0 0 0 0 0 0 0 0 0 0 0 0 0 0 0 0 0 0 0 0 0 0 0 0 0 0 0 0 0
0 0 0 0 0 0 0 0 0 0 0 0 0 0 0 0 0 0 0 0 0 0 0 0 0 0 0 0 0 0 0 0 0 0 0 0 0 0 0 0 0 0 0 0 0 0 0 0 0
0 0 0 0 0 0 0 0 0 0 0 0 0 0 0 0 0 0 0 0 0 0 0 0 0 0 0 0 0 0 0 0 0 0 0 0 0 0 0 0 0 0 0 0 0 0 0 0 0
Wind_Speed
10 9 7 2 3 5 9 6 4 2 2 1 4 4 6 6 5 9 4 6 8 9 10 9 9 8 7 7 7 7 6 6 5 5 5 4 3 3 3 2 2 2 2 3 3 3 3 3 4
9 7 4 3 5 7 7 7 5 2 2 4 4 4 6 7 7 7 5 6 7 9 9 8 8 8 7 7 6 6 5 5 4 4 4 4 3 2 2 2 1 1 2 2 2 2 2 3 4
10 7 4 4 7 8 5 5 5 3 5 3 3 5 5 5 6 5 5 5 6 8 8 9 9 8 7 6 6 5 4 4 3 3 3 2 2 2 2 1 1 1 1 2 2 2 2 3 3
4 3 4 6 10 8 4 2 5 5 4 3 5 5 4 5 4 5 5 5 7 8 8 8 8 7 6 5 5 4 3 3 2 2 2 1 1 1 1 2 2 1 0 1 2 2 2 3 3
3 3 6 7 10 7 3 0 3 5 5 3 4 5 5 4 7 6 4 6 6 7 7 7 8 6 5 5 4 3 2 2 1 1 1 1 1 1 1 1 1 1 1 1 2 3 4 4 4
3 4 5 8 9 7 3 1 1 4 4 4 4 4 5 5 5 4 4 5 6 7 6 6 7 5 5 4 3 2 2 2 1 1 1 1 2 2 2 2 2 2 2 2 3 3 4 5 6
4 4 7 8 7 7 5 2 2 3 4 3 2 3 6 5 4 3 4 5 5 5 5 4 4 4 4 3 3 2 2 1 2 2 2 2 3 3 3 3 3 3 4 3 4 4 5 6 6
3 4 6 6 7 4 3 2 1 2 3 4 3 3 5 5 4 3 4 5 5 5 4 4 3 3 3 2 2 2 1 0 1 2 2 2 3 4 4 4 4 4 4 4 5 5 6 6 7
3 3 5 4 4 2 4 2 2 4 5 3 4 5 7 7 5 4 3 4 4 4 3 3 3 3 2 1 1 0 1 1 2 2 3 3 2 3 3 4 4 4 5 6 6 6 7 6 7
2 3 2 4 3 3 3 2 2 2 4 3 4 6 7 5 4 4 3 3 3 3 3 3 3 2 2 1 1 0 0 0 1 1 1 1 2 2 2 2 5 6 6 7 8 8 7 6 4
1 2 1 4 7 3 3 1 0 2 3 3 5 6 6 4 3 3 3 3 3 3 4 4 3 3 2 1 1 1 1 1 1 1 2 2 2 1 1 1 2 3 5 4 5 5 4 4 4
2 1 1 2 4 2 1 1 0 0 2 4 5 6 6 5 4 3 3 3 3 3 3 3 3 3 3 2 2 1 1 1 1 2 2 2 1 1 1 1 1 1 2 2 2 3 4 5 5
2 1 1 1 1 2 2 1 1 0 2 4 5 4 5 4 3 3 3 3 3 3 3 3 3 3 2 2 2 2 1 1 2 2 2 2 1 1 2 2 1 2 2 2 2 3 4 4 4
2 2 1 2 1 1 1 0 1 2 3 4 4 4 4 4 4 3 3 3 2 3 2 2 2 2 2 2 2 2 2 1 2 2 2 2 2 2 2 2 2 2 2 2 2 3 3 3 3
3 3 2 2 3 2 1 2 4 4 4 4 4 4 4 4 3 3 3 3 2 2 3 2 2 2 2 2 3 2 2 2 2 2 3 3 2 2 2 2 2 2 3 3 2 3 3 3 3
4 3 2 3 3 3 2 3 3 4 5 4 5 5 5 4 4 3 3 3 3 2 2 2 2 2 2 2 2 2 2 2 2 2 2 4 4 3 3 2 2 2 2 2 2 2 2 3 3
3 3 3 3 4 3 3 3 3 4 5 5 5 5 5 4 4 4 3 3 3 2 2 1 2 2 2 2 2 2 2 2 2 2 2 3 4 4 3 2 3 3 2 2 3 2 2 3 3
2 3 2 3 3 3 3 4 3 3 5 5 5 5 4 4 4 4 4 4 3 2 2 1 1 2 2 1 1 2 2 2 2 2 3 4 4 5 4 3 3 3 2 2 2 3 3 2 3
2 1 1 1 2 1 4 5 5 4 5 5 4 4 4 4 4 5 5 4 3 2 1 1 1 2 2 1 1 2 2 2 2 2 3 4 5 5 4 4 4 3 2 3 3 3 3 2 2
1 2 1 2 2 2 3 6 6 5 6 5 4 4 4 4 4 5 5 4 3 2 1 1 1 2 2 1 1 1 1 1 1 2 3 4 4 4 4 4 3 3 3 3 3 3 2 2 2
1 1 1 1 2 3 3 5 5 4 4 3 3 3 3 4 4 4 4 4 3 2 1 1 2 2 2 2 1 1 1 1 2 2 2 3 3 4 4 5 4 4 3 2 3 3 3 2 2
1 2 1 2 2 2 1 3 4 5 5 5 4 4 3 3 3 3 4 4 3 2 2 1 1 1 1 1 1 1 1 1 2 2 2 3 3 4 4 4 4 4 3 3 3 3 3 3 2
1 3 3 3 3 3 3 3 5 4 5 5 5 4 3 3 3 3 3 4 3 3 2 1 0 0 1 1 1 1 1 1 1 2 2 2 3 3 4 4 4 4 3 3 4 4 3 3 2
2 2 3 2 1 3 5 4 5 3 4 4 5 5 4 3 3 3 3 3 3 3 2 2 1 1 0 0 1 0 1 1 2 2 2 2 2 2 4 4 3 3 3 3 3 3 4 3 3
2 1 1 1 1 4 2 3 6 2 3 3 4 5 5 4 3 3 3 3 3 3 2 2 2 1 1 0 0 1 1 1 1 2 2 2 2 2 3 4 3 3 3 3 3 3 3 3 3
2 1 0 1 2 2 1 5 4 4 5 4 4 3 3 3 3 3 3 3 3 3 3 2 2 2 1 1 1 1 1 1 1 1 2 2 2 2 3 3 3 4 4 4 3 3 3 3 3
2 0 1 1 3 3 5 4 1 4 4 3 3 2 2 2 3 3 2 3 3 3 3 3 3 2 2 1 1 1 1 1 1 1 1 2 2 2 3 3 3 4 4 4 3 3 3 3 3
2 3 1 1 2 4 4 3 2 3 3 3 2 2 1 2 2 2 2 2 2 3 3 3 3 3 2 2 1 1 1 1 1 1 2 2 2 3 3 3 3 4 4 4 3 3 3 3 3
2 1 2 2 2 2 4 3 1 4 3 2 2 2 2 2 2 2 2 3 3 3 3 3 3 3 2 2 2 1 2 1 1 1 2 2 2 3 3 3 4 4 4 4 3 4 4 4 4
1 3 2 2 3 3 3 6 1 4 3 2 1 0 1 2 2 2 3 3 3 3 3 3 3 3 3 3 2 2 2 2 1 2 2 2 2 3 3 3 3 4 4 4 4 4 4 4 5
Wind_Direction
281 263 248 234 220 226 232 227 222 215 224 19 29 39 57 35 52 113 123 88 99 107 110 107 97 94 91 90 88 86 86 84 82 84 88 89 88 88 89 110 122 125 123 122 126 126 125 121 117
275 257 239 228 222 221 220 213 219 198 103 67 38 45 68 73 74 97 96 91 100 104 108 105 98 94 92 90 87 85 86 86 82 80 78 75 75 74 83 80 106 154 145 135 131 131 134 137 137
266 251 232 221 227 227 209 186 169 127 87 92 74 34 49 72 87 90 104 109 101 100 104 103 98 95 93 89 86 81 78 79 76 72 70 65 62 53 49 49 53 70 131 157 158 153 154 152 157
250 227 240 235 230 235 237 151 140 138 113 105 111 88 66 32 58 96 114 110 102 102 102 105 98 94 92 90 84 78 72 67 68 61 54 52 42 18 11 12 22 37 73 182 198 193 184 182 182
243 233 222 226 229 229 238 88 142 135 142 141 118 105 91 64 74 97 101 98 101 99 102 109 100 98 94 89 86 76 64 51 44 25 354 340 319 313 320 330 334 323 278 234 223 219 210 205 208
235 235 224 218 216 213 202 207 186 140 137 138 124 114 109 102 84 84 93 94 96 101 107 111 102 101 98 90 87 71 47 28 4 327 306 293 286 281 278 279 270 264 265 255 244 237 232 221 217
250 242 240 227 214 205 180 174 196 145 140 135 109 114 122 117 95 85 84 88 87 91 97 105 111 104 95 87 85 79 56 19 342 320 299 290 285 271 262 258 254 252 253 257 256 248 241 234 227
283 282 254 237 225 204 144 128 37 85 102 54 32 118 132 133 117 99 87 80 79 80 83 84 87 89 90 99 98 85 73 311 291 288 282 277 269 263 255 249 250 251 252 255 258 257 249 244 237
272 264 246 249 234 147 123 118 35 52 81 68 46 61 101 124 121 109 100 92 83 76 73 72 68 70 65 57 69 105 220 237 262 265 255 254 246 242 242 232 241 251 252 252 253 254 252 248 240
228 249 255 327 341 112 126 125 120 134 126 116 96 89 102 120 124 128 117 104 90 75 68 64 48 43 40 25 33 334 340 354 293 309 285 253 257 260 272 253 244 246 247 249 251 251 250 245 236
225 248 280 4 14 54 103 105 81 180 164 158 145 135 131 132 130 127 112 91 85 69 54 55 38 25 23 17 11 353 341 327 301 322 319 302 294 287 291 274 252 245 241 240 247 242 239 236 233
221 289 12 27 2 24 74 104 179 258 78 84 104 128 134 144 141 127 109 84 75 69 53 50 39 32 23 15 357 344 356 341 328 327 315 319 319 313 298 287 272 260 250 250 249 247 243 244 242
214 155 107 76 38 28 47 37 2 40 94 94 110 127 144 146 126 119 108 92 78 67 50 40 35 36 25 15 345 1 355 344 318 320 317 337 325 310 315 304 298 285 278 267 264 266 267 262 255
145 151 143 133 136 108 102 270 256 207 152 139 145 155 156 146 141 138 115 94 80 68 50 32 34 38 24 15 3 357 354 338 327 334 332 338 324 316 317 310 305 300 298 284 267 271 276 273 270
162 166 164 177 170 135 99 253 216 202 172 171 171 167 156 145 143 133 120 111 92 73 48 25 22 39 29 16 3 352 340 344 346 338 332 338 329 320 315 303 304 305 305 306 304 296 297 293 287
189 188 183 176 173 169 172 247 192 173 182 189 179 175 163 149 143 137 122 113 99 85 57 24 23 29 25 16 357 335 336 345 344 343 348 348 341 338 325 313 302 303 312 313 311 305 307 299 293
197 210 186 159 182 171 191 241 184 173 191 198 190 180 163 155 152 139 123 108 95 87 69 30 35 37 28 10 347 334 336 346 347 359 2 349 347 345 338 325 317 320 312 305 304 310 300 293 294
216 221 192 167 173 189 213 241 226 194 202 200 197 181 168 164 160 141 129 116 104 92 78 50 33 37 29 14 4 355 356 352 359 1 357 353 349 349 344 328 325 325 317 313 311 300 298 295 297
304 285 243 109 119 221 229 247 247 213 207 207 202 184 170 170 154 138 136 126 114 103 94 73 39 21 34 29 16 4 356 346 347 352 0 359 350 348 342 330 325 324 316 311 310 306 307 307 313
315 304 344 67 96 260 253 265 257 222 209 202 201 181 169 167 158 151 144 133 128 124 102 69 56 26 27 32 2 327 329 323 323 347 2 355 348 346 338 332 326 323 317 320 318 317 310 309 319
356 339 18 5 318 241 251 275 237 203 193 177 182 169 162 168 169 154 145 137 130 125 109 56 46 20 17 25 8 356 352 334 357 356 351 344 344 344 336 330 329 326 322 310 311 306 297 294 292
354 357 345 296 308 272 231 283 256 194 187 191 188 181 181 168 154 147 147 138 136 132 114 77 47 21 2 9 4 338 336 329 324 331 331 341 349 343 337 331 330 328 324 319 312 316 302 288 285
2 321 293 277 285 300 246 239 261 188 198 196 181 175 168 155 153 152 148 145 141 133 129 133 151 316 351 3 351 329 330 314 315 327 332 339 340 339 336 336 335 332 327 324 321 319 313 298 280
300 292 270 259 313 273 231 209 265 202 195 179 167 159 151 147 146 143 140 139 140 137 138 159 194 231 276 337 340 332 310 315 323 326 324 326 328 334 336 333 331 328 324 319 311 312 314 306 295
305 354 10 347 244 248 193 208 251 200 129 137 142 150 155 159 159 154 153 151 152 153 164 187 193 218 224 232 305 308 297 299 293 305 310 318 319 323 328 333 329 325 318 312 308 303 301 299 294
293 322 29 261 269 297 217 233 243 109 96 92 103 123 138 155 157 162 168 166 172 180 184 190 200 212 205 207 241 266 271 256 265 290 301 306 306 309 313 318 321 319 315 313 309 297 289 290 286
314 303 360 310 287 268 247 228 163 112 107 116 128 135 155 161 159 164 167 170 182 190 192 195 201 205 203 203 211 245 267 268 275 286 292 290 293 302 315 316 315 312 313 311 306 294 294 294 288
295 326 328 262 290 283 270 243 209 163 170 169 161 156 163 143 148 167 177 190 197 193 198 196 194 198 200 194 209 240 257 262 268 282 290 293 296 301 300 302 304 304 305 307 308 303 297 292 287
190 234 241 270 273 275 293 286 34 137 143 152 152 145 167 169 178 188 195 196 202 201 200 201 198 193 193 198 205 220 241 249 257 264 273 283 289 293 295 300 303 303 302 304 309 305 301 293 289
265 240 202 211 265 242 266 271 61 100 98 103 105 149 202 195 187 195 212 207 209 214 211 205 196 196 199 196 201 215 224 229 246 261 274 284 291 296 297 302 306 306 306 308 309 308 308 299 293